Weather History for Rexburg, ID

Change the Weather History Date:

Tuesday, December 25, 2012

  Actual Average Record
Temperature  
Mean Temperature 20 °F 20 °F  
Max Temperature 23 °F 28 °F 43 °F (2005)
Min Temperature 16 °F 12 °F -10 °F (2001)
Degree Days  
Heating Degree Days 45 45  
Month to date heating degree days 894 1100  
Since 1 July heating degree days 2581 3112  
Cooling Degree Days 0 0  
Month to date cooling degree days 0 0  
Year to date cooling degree days 419 208  
Moisture  
Dew Point 15 °F    
Average Humidity 84    
Maximum Humidity 100    
Minimum Humidity 68    
Precipitation  
Precipitation 0.00 in 0.05 in 0.50 in (2008)
Month to date precipitation 0.90 0.80  
Year to date precipitation 9.95 12.83  
Sea Level Pressure  
Sea Level Pressure 30.20 in    
Wind  
Wind Speed 6 mph (SSE)    
Max Wind Speed 13 mph    
Max Gust Speed 17 mph    
Visibility 10 miles    
Events      
T = Trace of Precipitation, MM = Missing Value Source: NWS Daily Summary

Daily Weather History Graph

Daily Weather History Graph

Search for Another Location

Airport:

Trip Planner

Search our weather history database for the weather conditions in past years. The results will help you decide how hot, cold, wet, or windy it might be!

Date:

Astronomy

Dec. 25, 2012 Rise Set
Actual Time 8:00 AM MST 4:55 PM MST
Civil Twilight 7:27 AM MST 5:28 PM MST
Nautical Twilight 6:50 AM MST 6:04 PM MST
Astronomical Twilight 6:15 AM MST 6:39 PM MST
Moon 3:07 PM MST (12/25) 5:34 AM MST (12/25)
Length of Visible Light 10h 01m
Length of Day
8h 55m
Waxing Gibbous, 94% of the Moon is Illuminated
Dec 25
Waxing Gibbous
Dec 28
Full
Jan 4
Last Quarter
Jan 11
New
Jan 18
First Quarter

Hourly Weather History & Observations

Time (MST) Temp. Windchill Dew Point Humidity Pressure Visibility Wind Dir Wind Speed Gust Speed Precip Events Conditions
12:53 AM 18.0 °F 8.7 °F 16.0 °F 92% 30.19 in 10.0 mi SSW 6.9 mph - N/A   Overcast
1:53 AM 16.0 °F 6.3 °F 14.0 °F 92% 30.23 in 10.0 mi South 6.9 mph - N/A   Mostly Cloudy
2:22 AM 17.6 °F 6.4 °F 15.8 °F 93% 30.11 in 8.0 mi SSW 9.2 mph - N/A   Overcast
2:53 AM 18.0 °F 6.1 °F 17.1 °F 96% 30.25 in 4.0 mi South 10.4 mph - N/A   Overcast
3:53 AM 19.0 °F 7.5 °F 17.1 °F 92% 30.27 in 10.0 mi SW 10.4 mph - N/A   Overcast
4:46 AM 19.4 °F 9.5 °F 17.6 °F 93% 30.13 in 10.0 mi SW 8.1 mph - N/A   Overcast
4:53 AM 19.0 °F 10.0 °F 17.1 °F 92% 30.26 in 10.0 mi SW 6.9 mph - N/A   Overcast
5:53 AM 19.0 °F 8.2 °F 17.1 °F 92% 30.27 in 10.0 mi SW 9.2 mph - N/A   Overcast
6:53 AM 18.0 °F - 17.1 °F 96% 30.27 in 10.0 mi Calm Calm - N/A   Overcast
7:32 AM 19.4 °F - 15.8 °F 86% 30.15 in 10.0 mi Calm Calm - N/A   Overcast
7:53 AM 18.0 °F 11.1 °F 17.1 °F 96% 30.27 in 10.0 mi NE 4.6 mph - N/A   Overcast
8:53 AM 18.0 °F 9.8 °F 15.1 °F 88% 30.30 in 10.0 mi South 5.8 mph - N/A   Overcast
9:14 AM 17.6 °F 10.7 °F 15.8 °F 93% 30.16 in 10.0 mi SSW 4.6 mph - N/A   Overcast
9:53 AM 17.1 °F 11.7 °F 15.1 °F 92% 30.32 in 10.0 mi South 3.5 mph - N/A   Overcast
10:53 AM 19.9 °F 14.9 °F 16.0 °F 85% 30.30 in 10.0 mi South 3.5 mph - N/A   Overcast
11:53 AM 21.9 °F 9.8 °F 15.1 °F 75% 30.26 in 10.0 mi South 12.7 mph - N/A   Overcast
1:53 PM 23.0 °F 14.7 °F 14.0 °F 68% 30.23 in 10.0 mi SSW 6.9 mph - N/A   Scattered Clouds
2:53 PM 21.9 °F 15.7 °F 12.0 °F 66% 30.22 in 10.0 mi SSE 4.6 mph - N/A   Clear
3:53 PM 21.0 °F 14.6 °F 12.0 °F 68% 30.20 in 10.0 mi East 4.6 mph - N/A   Clear
4:53 PM 21.0 °F 16.2 °F 12.9 °F 71% 30.18 in 10.0 mi East 3.5 mph - N/A   Overcast
5:53 PM 19.0 °F - 12.0 °F 74% 30.18 in 10.0 mi Calm Calm - N/A   Overcast
6:53 PM 19.0 °F 12.3 °F 12.0 °F 74% 30.15 in 10.0 mi East 4.6 mph - N/A   Overcast
7:53 PM 19.0 °F 12.3 °F 12.9 °F 77% 30.12 in 10.0 mi NE 4.6 mph - N/A   Overcast
8:53 PM 19.0 °F 11.1 °F 12.9 °F 77% 30.10 in 10.0 mi ENE 5.8 mph - N/A   Overcast
9:53 PM 19.9 °F 12.1 °F 14.0 °F 78% 30.07 in 10.0 mi NNE 5.8 mph - N/A   Overcast
10:53 PM 19.0 °F 13.9 °F 14.0 °F 81% 30.05 in 10.0 mi NE 3.5 mph - N/A   Overcast
11:53 PM 19.9 °F 14.9 °F 15.1 °F 81% 30.03 in 10.0 mi NE 3.5 mph - N/A   Overcast